Probability
13 26 45 68 68 23 3 0 0 0 0 3 3 13 13 13 3 3 3 32 48 58 81 90 97 97 97 97 97 97 97 97 97 97 94 97 94 90 90 84 74 68 65 61 55 58 65 74 65
19 42 52 61 39 0 0 0 0 0 0 3 6 13 10 6 6 6 16 39 52 48 74 94 100 97 97 97 97 94 94 94 94 94 97 97 97 94 87 77 71 65 68 71 68 74 74 74 74
26 39 32 29 3 0 0 0 0 0 3 3 6 13 16 3 6 13 19 32 35 55 90 100 100 100 100 100 100 97 100 100 97 94 97 97 94 87 87 81 74 74 77 77 77 77 71 74 74
26 19 23 3 0 0 0 0 0 0 0 3 10 16 19 13 16 16 16 32 52 90 87 100 100 100 100 100 100 100 100 100 100 97 94 90 90 84 90 87 81 77 84 77 81 81 68 74 68
16 10 10 0 0 0 0 0 0 0 0 10 26 45 32 32 23 19 19 42 65 87 84 100 100 100 100 100 100 100 100 100 100 100 94 94 94 94 90 94 90 87 84 81 81 77 71 74 68
10 6 3 0 0 0 0 0 0 0 0 10 29 48 42 29 29 23 29 32 61 81 90 100 100 100 100 100 100 100 100 100 100 100 97 100 97 97 94 94 94 87 87 87 84 74 71 74 65
3 3 0 0 0 0 0 0 0 0 0 3 23 48 42 32 45 32 39 45 55 84 94 97 97 100 100 100 100 100 100 100 100 100 100 97 97 94 90 94 94 94 94 97 74 68 68 71 65
0 0 0 0 0 0 3 0 0 3 3 0 10 55 74 68 48 42 48 48 68 77 87 94 94 100 97 97 100 100 97 97 97 97 94 94 94 97 94 97 94 90 90 81 77 81 77 65 61
0 0 0 0 0 0 0 0 3 3 6 13 26 68 74 68 55 61 55 55 61 71 71 87 84 97 97 94 94 97 97 97 94 97 94 94 97 97 97 94 90 87 87 74 81 81 77 68 55
0 0 0 0 0 0 0 0 0 0 6 23 52 74 74 74 65 55 58 55 55 65 65 87 81 87 94 87 97 97 94 97 97 97 97 97 97 100 90 90 97 87 84 77 84 87 77 65 39
0 0 0 0 0 0 0 0 0 0 6 26 68 74 74 68 61 52 52 58 58 65 71 65 68 77 77 90 97 94 90 94 97 94 100 97 97 100 90 84 87 97 90 84 81 74 55 71 77
0 0 0 0 0 0 0 0 0 0 6 32 65 77 71 74 71 58 52 65 68 68 61 65 71 87 90 90 84 87 90 94 94 100 90 90 97 97 97 97 97 100 100 97 84 87 87 74 77
0 0 0 0 0 0 0 0 0 3 16 39 74 77 77 81 74 71 61 74 77 71 71 81 90 94 90 84 81 81 87 77 90 97 94 94 97 100 100 100 100 97 100 97 97 94 94 94 84
0 0 0 0 0 0 3 0 6 13 26 42 71 74 74 77 74 74 74 77 87 90 87 90 87 87 87 87 84 81 84 90 84 94 97 94 100 100 100 94 97 97 100 100 100 97 90 97 90
0 0 0 0 0 0 3 3 6 16 29 48 65 74 71 77 81 87 81 90 97 97 94 97 94 90 87 84 81 77 77 68 87 94 90 90 100 100 100 97 100 97 97 100 100 97 97 94 90
0 0 0 0 0 0 0 6 10 16 35 58 58 77 81 90 77 87 90 94 100 97 97 97 87 87 90 87 87 84 71 87 87 90 90 94 97 100 100 100 100 100 100 100 97 97 94 94 90
0 0 0 0 0 0 0 6 6 13 29 52 55 77 81 84 81 87 81 90 94 97 97 97 94 94 87 87 87 84 84 81 90 84 90 94 97 100 100 100 100 100 100 100 84 94 90 94 87
0 0 0 0 0 0 0 13 6 13 16 52 58 77 77 81 84 84 84 87 94 97 97 97 94 94 90 84 84 81 84 84 90 84 94 90 97 97 100 100 97 100 100 100 100 90 97 94 84
0 0 0 0 0 0 0 3 6 10 16 42 58 81 84 81 87 84 84 84 90 97 94 97 97 94 87 81 77 77 77 81 84 90 90 90 97 97 97 97 94 97 100 100 87 81 90 94 94
0 0 0 0 0 0 0 0 6 10 16 26 55 71 81 81 84 90 84 84 90 97 97 97 97 94 87 81 81 81 77 71 81 84 81 81 94 90 84 97 94 100 97 97 90 97 94 84 87
0 0 0 0 0 0 0 3 13 10 13 26 42 61 74 81 90 90 87 90 94 94 94 94 94 94 90 84 77 81 74 68 81 81 84 87 87 87 90 94 97 97 94 97 97 94 87 87 84
0 0 0 0 0 0 0 3 23 26 19 29 35 45 58 77 84 87 87 90 90 94 94 94 94 94 90 84 77 61 61 58 65 68 77 87 87 87 84 81 87 94 94 94 94 87 90 87 81
0 0 0 0 0 0 0 0 16 23 32 35 35 29 48 81 81 84 90 90 90 90 94 94 94 90 90 90 84 77 65 68 74 71 84 84 87 84 84 84 84 84 90 94 94 94 90 94 84
0 0 0 0 0 0 0 0 6 13 19 23 29 39 39 68 74 84 90 94 90 90 97 94 94 90 94 87 84 77 74 77 77 68 68 71 84 87 71 81 90 90 84 90 90 94 94 97 94
0 0 0 0 0 0 0 0 3 0 3 16 19 35 48 58 81 81 90 94 90 90 97 97 97 94 94 87 84 84 84 87 84 61 65 71 74 77 77 74 84 84 81 87 94 90 90 90 90
0 0 0 0 0 0 0 0 3 3 3 10 26 29 48 58 71 74 87 87 94 94 97 97 97 94 94 84 84 81 81 77 74 74 71 74 71 77 74 77 81 84 77 81 84 87 87 87 94
0 0 0 0 0 0 0 0 3 6 3 13 13 39 48 65 77 81 84 87 94 97 97 97 97 94 94 84 84 87 81 77 74 77 77 68 74 65 71 61 71 74 71 81 87 77 84 90 81
0 0 0 0 0 0 0 0 3 6 10 10 16 42 65 65 77 84 81 87 97 97 100 100 100 100 97 94 84 74 77 81 68 68 74 71 71 71 61 55 61 65 71 68 81 81 77 71 81
0 0 0 0 0 0 0 0 0 13 16 10 23 52 61 68 74 81 90 94 94 97 100 100 100 100 97 94 94 84 84 74 61 65 71 65 65 65 55 55 58 61 65 65 68 68 61 58 65
0 0 0 0 3 0 0 0 0 6 6 10 32 52 65 77 77 84 94 100 100 100 97 100 100 100 100 94 94 90 90 81 74 68 74 68 65 65 65 65 65 61 58 61 58 52 48 55 61
Height
5915 5914 5913 5911 5910 5913 5911 5910 5908 5906 5905 5903 5901 5900 5899 5899 5899 5900 5897 5896 5897 5897 5897 5898 5899 5899 5900 5901 5902 5902 5903 5903 5903 5904 5904 5905 5905 5905 5906 5906 5906 5907 5907 5907 5907 5907 5907 5908 5908
5918 5918 5915 5913 5915 5916 5914 5913 5911 5909 5907 5905 5903 5902 5901 5900 5899 5899 5897 5897 5898 5898 5899 5899 5900 5900 5901 5902 5902 5903 5904 5904 5904 5905 5905 5906 5906 5906 5907 5907 5907 5907 5908 5908 5908 5908 5908 5909 5909
5920 5919 5916 5917 5921 5919 5918 5915 5913 5911 5909 5907 5905 5904 5902 5901 5900 5900 5899 5899 5899 5899 5900 5900 5901 5901 5902 5902 5903 5904 5905 5905 5905 5906 5906 5906 5907 5907 5907 5908 5908 5908 5908 5909 5909 5909 5909 5909 5910
5922 5920 5919 5924 5924 5922 5920 5918 5916 5913 5911 5909 5907 5905 5903 5902 5901 5901 5900 5900 5900 5900 5900 5901 5901 5902 5903 5903 5904 5905 5905 5906 5906 5906 5906 5907 5907 5908 5908 5908 5908 5908 5909 5909 5909 5910 5910 5910 5911
5923 5923 5924 5927 5927 5925 5922 5919 5916 5916 5913 5911 5909 5907 5905 5904 5903 5901 5900 5901 5901 5901 5901 5901 5902 5903 5903 5904 5904 5905 5905 5906 5906 5907 5907 5908 5908 5908 5909 5909 5909 5909 5909 5910 5910 5910 5911 5911 5911
5925 5925 5929 5931 5929 5927 5925 5922 5919 5917 5915 5913 5911 5908 5907 5905 5904 5903 5902 5902 5902 5902 5902 5902 5902 5903 5903 5904 5905 5905 5906 5906 5907 5907 5908 5908 5908 5909 5909 5909 5909 5909 5910 5910 5911 5911 5911 5912 5912
5928 5928 5932 5934 5932 5930 5928 5924 5922 5919 5917 5915 5912 5910 5908 5907 5905 5904 5903 5902 5902 5902 5902 5902 5903 5903 5903 5904 5904 5905 5906 5906 5907 5907 5908 5908 5909 5909 5909 5909 5910 5910 5910 5911 5911 5911 5912 5912 5913
5932 5934 5935 5936 5935 5932 5930 5927 5924 5921 5919 5917 5915 5912 5910 5909 5907 5905 5904 5903 5903 5903 5902 5902 5903 5903 5903 5904 5904 5905 5905 5906 5906 5907 5908 5908 5909 5909 5909 5910 5910 5910 5911 5911 5912 5912 5912 5913 5913
5935 5937 5938 5938 5936 5934 5931 5927 5925 5922 5919 5917 5916 5914 5912 5910 5908 5906 5905 5904 5903 5902 5902 5902 5902 5903 5903 5903 5903 5904 5905 5905 5906 5907 5907 5908 5908 5909 5909 5910 5910 5911 5911 5912 5912 5912 5913 5913 5914
5938 5939 5940 5938 5937 5935 5932 5929 5926 5922 5920 5918 5917 5915 5913 5911 5909 5908 5906 5905 5904 5903 5902 5902 5902 5902 5902 5902 5902 5903 5904 5904 5905 5906 5907 5908 5908 5909 5910 5910 5911 5911 5912 5912 5912 5913 5913 5914 5914
5939 5940 5940 5939 5937 5935 5934 5931 5929 5925 5923 5921 5919 5917 5915 5912 5911 5909 5907 5906 5904 5903 5902 5902 5901 5901 5901 5901 5901 5902 5903 5904 5904 5905 5906 5907 5908 5909 5910 5910 5911 5911 5912 5913 5913 5913 5914 5914 5915
5940 5940 5939 5939 5938 5936 5935 5933 5930 5928 5926 5923 5920 5918 5916 5914 5912 5910 5908 5906 5905 5904 5902 5901 5901 5900 5900 5900 5900 5900 5902 5902 5904 5905 5906 5907 5908 5909 5910 5911 5911 5912 5912 5913 5913 5914 5914 5915 5915
5940 5940 5940 5939 5939 5938 5936 5934 5932 5930 5927 5924 5922 5919 5917 5914 5912 5911 5909 5907 5906 5904 5903 5902 5901 5900 5900 5899 5899 5900 5901 5902 5903 5904 5905 5906 5907 5909 5910 5910 5911 5912 5913 5913 5914 5914 5915 5915 5915
5939 5940 5940 5940 5940 5938 5935 5933 5932 5930 5928 5925 5923 5920 5918 5915 5913 5911 5910 5908 5906 5905 5903 5902 5901 5900 5899 5899 5899 5899 5900 5901 5902 5904 5905 5906 5907 5909 5910 5910 5911 5912 5913 5913 5914 5914 5914 5915 5915
5938 5939 5940 5941 5940 5939 5937 5934 5932 5931 5928 5926 5923 5921 5918 5916 5914 5912 5910 5909 5907 5905 5903 5902 5901 5900 5899 5898 5898 5898 5899 5900 5902 5903 5904 5905 5907 5908 5909 5910 5911 5912 5913 5913 5914 5914 5914 5915 5915
5939 5941 5942 5943 5941 5939 5939 5936 5933 5932 5929 5926 5923 5921 5919 5917 5915 5913 5911 5909 5907 5905 5903 5902 5901 5899 5898 5897 5897 5897 5898 5899 5900 5902 5903 5904 5906 5907 5909 5910 5911 5911 5912 5913 5914 5914 5914 5915 5915
5942 5944 5945 5945 5942 5940 5939 5937 5934 5933 5931 5927 5924 5922 5919 5918 5915 5913 5911 5909 5907 5905 5903 5901 5900 5899 5898 5897 5897 5897 5897 5898 5899 5900 5902 5903 5904 5906 5908 5909 5910 5911 5912 5912 5913 5914 5914 5915 5915
5945 5947 5947 5946 5943 5941 5940 5938 5936 5934 5931 5927 5925 5922 5920 5918 5916 5914 5912 5909 5907 5905 5904 5902 5900 5899 5898 5897 5896 5896 5896 5897 5898 5899 5900 5901 5903 5904 5906 5908 5909 5910 5911 5912 5913 5913 5914 5914 5914
5941 5943 5945 5945 5942 5940 5939 5938 5936 5934 5931 5928 5925 5923 5920 5918 5917 5914 5912 5910 5908 5905 5903 5902 5900 5899 5897 5896 5896 5895 5895 5896 5897 5898 5899 5900 5902 5903 5905 5906 5908 5909 5910 5911 5912 5912 5913 5913 5913
5939 5941 5943 5943 5941 5939 5938 5937 5935 5933 5931 5928 5925 5923 5921 5918 5916 5915 5913 5910 5908 5906 5903 5901 5900 5898 5897 5896 5895 5895 5895 5895 5895 5896 5897 5899 5900 5901 5903 5905 5906 5907 5908 5910 5910 5911 5912 5912 5912
5938 5940 5941 5941 5940 5938 5938 5937 5934 5931 5930 5928 5925 5922 5920 5918 5916 5915 5913 5911 5908 5906 5903 5901 5900 5898 5897 5896 5895 5894 5893 5894 5894 5895 5896 5897 5898 5899 5901 5903 5904 5906 5907 5908 5909 5909 5910 5910 5911
5937 5938 5938 5938 5938 5938 5939 5938 5934 5931 5929 5927 5925 5923 5920 5917 5916 5915 5912 5911 5908 5906 5903 5901 5899 5898 5896 5895 5894 5893 5892 5892 5892 5893 5894 5895 5896 5898 5899 5901 5902 5904 5905 5906 5907 5907 5908 5908 5909
5934 5934 5935 5935 5935 5936 5936 5937 5935 5930 5929 5927 5925 5923 5920 5918 5916 5914 5912 5910 5908 5906 5903 5901 5899 5897 5895 5894 5893 5892 5891 5891 5891 5891 5892 5893 5894 5896 5897 5898 5900 5901 5903 5904 5904 5905 5905 5906 5906
5930 5932 5933 5933 5934 5935 5935 5936 5934 5930 5928 5926 5924 5922 5920 5917 5915 5913 5911 5910 5908 5905 5903 5901 5899 5897 5895 5893 5892 5891 5890 5890 5890 5890 5891 5891 5893 5894 5895 5897 5898 5899 5900 5901 5902 5903 5903 5903 5904
5928 5930 5931 5932 5933 5932 5932 5933 5932 5929 5927 5925 5923 5921 5919 5917 5915 5912 5910 5909 5907 5905 5903 5900 5898 5896 5894 5892 5891 5890 5889 5888 5888 5888 5888 5889 5890 5892 5893 5894 5895 5896 5898 5899 5899 5900 5900 5900 5901
5924 5927 5930 5932 5933 5931 5930 5931 5929 5927 5925 5923 5921 5919 5917 5915 5913 5911 5909 5908 5906 5904 5902 5900 5898 5895 5893 5891 5890 5889 5887 5887 5887 5886 5886 5887 5888 5889 5890 5891 5892 5893 5894 5895 5896 5897 5897 5897 5897
5921 5923 5927 5929 5929 5931 5932 5930 5926 5923 5922 5921 5919 5916 5915 5914 5911 5910 5908 5907 5905 5903 5901 5899 5897 5895 5892 5890 5889 5887 5886 5885 5885 5885 5885 5885 5885 5886 5887 5888 5889 5890 5891 5892 5892 5893 5893 5894 5894
5917 5920 5923 5924 5926 5927 5929 5928 5924 5919 5919 5918 5916 5915 5913 5911 5910 5908 5907 5906 5904 5903 5901 5898 5896 5894 5892 5890 5888 5886 5885 5884 5883 5883 5883 5883 5883 5883 5884 5885 5886 5887 5888 5888 5889 5889 5890 5890 5890
5913 5915 5917 5920 5922 5924 5925 5924 5918 5917 5917 5916 5914 5913 5912 5909 5907 5906 5905 5905 5903 5902 5900 5898 5896 5893 5891 5889 5887 5885 5884 5882 5881 5881 5881 5881 5881 5881 5882 5882 5883 5884 5884 5885 5886 5886 5886 5886 5886
5908 5910 5913 5915 5917 5918 5920 5923 5915 5915 5915 5913 5912 5910 5909 5908 5906 5904 5904 5903 5902 5900 5898 5896 5894 5892 5890 5888 5886 5884 5883 5881 5880 5879 5879 5879 5879 5879 5879 5880 5880 5880 5881 5882 5882 5882 5882 5883 5882
Wind_Speed
21 21 22 24 25 17 14 14 12 11 10 9 8 7 7 5 4 3 2 3 3 4 5 5 6 6 7 7 7 8 8 8 8 8 8 8 8 7 7 7 7 6 6 6 6 5 5 5 5
21 19 23 26 20 15 15 14 14 13 12 10 9 8 7 6 5 4 3 2 3 3 4 5 5 6 7 6 6 7 8 8 7 7 7 7 7 7 7 6 5 5 5 5 5 5 5 5 5
21 21 25 23 14 14 14 14 15 15 13 12 11 9 7 7 6 5 3 2 3 3 4 5 5 5 5 5 6 6 7 7 7 7 7 7 6 6 6 6 5 5 5 5 5 4 4 4 4
19 23 24 16 13 14 15 14 14 15 14 13 12 10 8 7 7 5 4 3 3 3 3 4 4 4 4 4 5 5 7 7 7 7 7 6 6 6 6 5 5 4 5 5 4 4 4 4 4
21 22 20 13 13 14 15 14 14 14 14 13 12 11 9 8 7 6 4 4 3 2 2 3 3 4 4 4 4 5 5 6 6 6 6 6 5 5 5 5 4 4 5 4 4 4 4 4 4
20 20 16 11 11 13 14 14 14 14 14 14 13 11 10 8 8 7 6 5 3 2 1 2 2 3 4 4 5 5 5 5 6 6 6 6 5 5 4 4 4 4 4 4 3 4 4 4 4
17 17 12 9 10 12 13 13 13 13 14 14 14 13 11 9 8 7 7 5 3 1 1 1 2 3 4 5 5 5 6 6 6 6 6 6 5 4 4 4 4 4 4 3 3 3 3 3 3
14 14 10 7 9 11 12 12 12 12 14 15 15 14 12 10 9 8 7 6 4 2 1 1 2 3 4 5 7 6 6 7 7 7 6 6 5 5 5 4 4 3 4 3 3 3 3 2 3
12 13 8 5 7 9 10 10 11 11 12 14 14 14 13 12 10 9 8 7 6 4 2 2 3 4 5 5 7 8 7 7 7 8 7 6 5 4 4 3 3 3 4 3 3 3 3 2 3
10 9 4 4 5 7 10 12 13 13 15 17 16 16 14 13 11 9 9 8 7 6 4 4 5 5 5 6 6 8 8 8 8 8 8 7 5 5 4 3 3 3 4 4 3 3 3 3 2
6 4 2 4 6 7 9 12 13 14 16 17 17 17 15 14 12 11 10 9 9 8 7 6 6 5 5 6 7 7 8 8 8 8 8 7 6 5 4 4 3 3 3 3 3 3 3 3 2
4 2 3 4 7 8 8 9 11 13 15 17 17 17 16 14 13 12 12 10 9 9 9 8 7 5 4 5 5 7 7 8 8 8 8 7 7 5 5 4 3 3 4 3 3 3 3 3 3
2 2 3 6 8 8 6 7 10 12 15 17 17 17 16 15 15 14 13 12 11 10 9 9 8 7 6 6 6 6 7 8 8 7 7 6 6 6 5 4 4 4 3 3 3 3 3 3 2
4 2 4 6 6 7 7 4 8 13 17 17 16 16 16 16 16 15 14 13 12 11 11 10 8 8 7 7 6 6 7 8 8 8 8 7 7 6 6 5 4 3 3 3 3 3 3 2 2
5 4 5 6 7 8 9 9 9 14 18 18 17 17 17 17 17 16 15 14 14 13 12 11 9 10 9 8 6 6 7 8 8 9 9 8 8 7 7 6 5 4 4 3 3 3 3 2 1
7 7 6 6 8 8 9 10 10 14 17 18 18 17 17 17 17 16 15 15 15 15 14 11 10 10 9 7 5 5 6 7 8 9 9 9 9 8 7 7 6 5 5 4 3 4 4 3 3
7 6 5 7 9 8 8 9 11 13 15 18 18 18 16 16 16 16 15 15 15 15 15 12 10 11 9 7 5 5 5 7 8 9 10 10 10 9 8 8 7 6 6 5 4 4 4 4 4
0 3 5 7 10 7 8 8 11 12 14 16 17 17 16 16 16 16 16 17 17 16 15 13 11 11 10 8 6 5 4 6 8 9 9 10 10 10 9 9 8 7 7 6 5 5 5 5 5
9 8 5 7 10 7 7 8 10 13 13 14 16 16 16 15 15 15 16 17 17 17 16 13 11 11 10 9 7 5 5 6 8 9 10 10 10 11 10 10 9 9 8 7 6 6 6 6 6
8 6 5 7 10 7 6 8 9 12 15 15 16 16 15 15 15 15 16 17 17 17 16 14 12 11 11 10 8 6 6 6 7 8 10 11 11 11 11 11 10 9 9 8 7 7 7 7 7
7 6 7 8 9 7 9 11 13 13 15 16 16 15 15 15 15 15 15 16 17 17 16 15 13 12 11 11 10 8 7 7 7 8 9 11 11 11 12 12 11 10 10 9 9 9 9 8 8
7 8 10 9 7 5 5 10 15 14 16 17 17 16 15 15 16 16 15 16 17 17 17 15 14 13 12 11 10 9 8 7 8 9 9 10 11 12 12 12 12 11 11 10 10 10 10 10 9
11 11 10 8 7 6 5 8 12 14 15 17 16 15 15 15 16 16 15 15 16 17 17 16 15 14 13 12 10 9 8 7 7 8 9 9 11 12 13 13 13 12 12 11 11 11 11 10 10
12 11 9 7 7 7 7 8 11 13 14 16 17 16 15 15 16 16 15 15 16 17 16 16 15 14 14 13 11 9 8 8 7 8 9 10 10 11 12 12 13 13 12 12 12 12 12 11 12
13 11 7 7 10 10 8 8 12 16 17 18 18 17 16 15 15 14 13 14 15 16 16 16 15 14 14 13 12 10 10 9 8 9 9 10 10 11 12 12 13 14 13 13 13 13 13 13 13
14 12 9 7 8 11 10 8 14 16 17 17 16 16 15 14 14 12 13 14 16 16 17 16 16 15 14 13 12 11 10 10 9 10 9 9 10 11 11 12 13 14 15 15 14 14 14 14 14
17 15 12 13 12 11 11 12 18 19 17 16 15 15 14 15 14 12 13 14 15 16 17 16 16 16 15 13 12 12 11 10 10 10 9 9 9 10 11 12 13 14 14 15 15 15 15 15 15
20 17 15 16 15 14 12 15 19 19 16 17 17 15 15 15 13 13 14 15 16 16 16 16 16 16 15 14 13 12 12 11 10 10 9 8 8 9 11 12 13 13 13 14 14 15 15 16 16
21 21 19 17 16 15 13 16 18 17 18 19 19 17 15 15 15 14 14 15 16 16 16 17 16 16 15 14 13 13 12 11 10 10 9 9 8 8 9 11 13 13 13 14 13 14 14 15 16
22 22 20 21 19 18 15 15 19 17 17 19 19 18 16 15 15 15 14 15 16 16 16 17 17 16 15 15 14 14 13 11 10 10 10 9 9 9 10 11 12 13 14 14 15 15 15 16 17
Wind_Direction
74 70 67 60 56 49 41 41 38 41 43 45 45 46 53 54 46 46 72 128 137 137 137 138 144 150 152 151 154 161 165 166 164 164 163 163 158 152 146 143 139 133 126 119 115 107 104 98 94
78 71 65 57 49 37 34 32 33 37 40 38 40 40 45 45 44 47 68 105 136 149 154 158 155 157 158 157 158 163 174 175 174 176 174 171 164 160 156 152 145 141 134 129 121 112 109 104 103
78 71 64 56 34 28 31 29 30 30 32 31 35 38 38 39 40 41 50 83 118 142 153 161 168 169 167 170 173 176 184 184 181 182 177 170 166 165 161 155 149 147 141 133 124 115 111 107 110
77 69 65 56 29 26 28 28 29 25 25 25 29 33 34 40 38 36 38 59 101 123 143 158 171 177 184 184 191 197 199 196 188 187 183 177 173 170 166 162 157 149 142 134 125 121 116 112 116
74 65 58 45 25 21 22 21 26 24 23 21 23 26 30 35 35 34 33 45 74 98 130 150 168 175 185 189 198 206 204 198 197 198 196 189 183 179 177 171 161 151 144 136 128 128 120 120 125
72 64 56 31 18 17 18 16 13 19 20 18 19 23 29 27 28 30 33 41 60 83 121 153 179 182 196 206 215 220 220 216 211 207 204 201 197 192 187 174 167 160 151 142 137 129 124 127 129
71 69 58 27 13 15 15 17 15 15 16 15 16 20 21 25 27 24 23 30 48 70 57 208 213 216 221 224 226 224 228 226 219 212 207 204 198 197 196 187 178 171 159 148 146 138 129 129 128
72 76 61 29 12 11 9 14 15 18 16 18 19 18 20 21 20 17 15 15 15 4 318 268 230 235 239 241 236 231 231 229 229 220 214 212 209 205 202 198 188 179 167 158 150 143 140 139 142
71 67 51 27 16 4 5 6 7 10 19 25 24 18 18 17 18 16 12 8 3 351 329 288 248 250 257 255 240 234 234 234 233 225 221 219 217 212 203 200 189 182 172 162 160 158 156 153 147
58 59 21 7 11 9 5 9 8 6 15 18 19 19 19 18 18 17 13 8 2 360 342 308 287 272 262 255 247 236 234 237 234 226 223 223 223 211 207 202 199 188 174 171 172 169 161 157 150
71 47 25 7 2 21 13 6 8 5 8 8 11 15 17 18 18 18 15 13 8 3 356 337 310 289 275 265 249 235 232 232 233 228 223 225 222 220 212 208 208 193 182 181 179 172 166 162 160
87 40 33 21 12 17 20 10 7 3 1 1 4 10 13 14 14 14 12 10 8 7 0 349 338 324 301 286 270 237 233 230 230 226 222 225 224 223 217 211 210 203 194 187 176 173 167 170 171
87 51 31 24 14 1 11 13 4 359 357 358 2 8 11 12 11 10 8 5 1 358 355 348 341 335 323 305 293 251 235 233 228 225 221 221 226 228 222 218 213 208 195 192 196 188 181 182 178
126 74 37 26 1 354 352 356 6 352 353 357 3 6 6 8 8 7 4 2 359 354 350 346 341 335 323 310 292 254 238 233 230 226 226 227 229 232 232 224 227 221 203 204 203 198 204 205 209
98 74 43 8 346 338 341 348 356 348 349 354 358 3 4 4 5 2 359 359 358 353 349 344 342 339 333 318 297 259 246 235 228 226 230 233 232 235 233 232 239 232 220 215 219 211 220 217 215
60 43 24 334 325 333 347 349 350 345 341 348 354 358 360 1 2 0 357 358 358 354 352 347 344 341 340 332 311 268 250 238 229 227 231 235 234 235 231 237 241 235 226 228 230 226 230 234 234
29 3 348 315 318 326 338 342 338 338 333 340 349 353 357 358 360 0 359 357 356 357 356 352 348 344 343 342 328 303 262 244 235 231 234 234 230 233 234 236 240 239 237 238 239 238 239 240 241
52 281 288 293 299 312 328 331 324 329 331 335 343 350 355 356 359 1 0 358 355 354 354 351 346 344 345 339 325 318 279 251 245 239 236 232 231 234 234 235 238 240 243 248 247 247 252 252 249
205 197 219 265 286 302 314 320 320 327 332 331 338 346 351 352 356 358 359 356 354 354 353 352 344 341 341 338 326 314 294 267 252 242 236 233 234 233 233 234 235 239 242 246 253 255 255 258 255
215 214 232 277 296 311 315 316 311 321 333 333 334 341 347 348 352 355 354 353 353 353 353 351 346 340 339 336 333 317 293 278 264 253 240 235 237 236 235 233 234 237 239 241 251 258 260 260 256
231 238 242 254 283 315 330 322 310 320 329 331 332 335 338 344 349 351 349 350 351 351 351 349 344 341 339 335 329 319 291 280 270 256 243 237 237 236 235 234 236 240 240 243 251 259 262 264 262
239 259 259 261 272 288 298 301 308 313 322 324 331 334 331 337 342 345 346 347 346 347 347 345 342 338 336 331 325 318 306 290 271 254 245 240 237 235 235 234 235 239 243 247 254 262 263 265 264
233 244 258 272 282 281 278 283 298 306 309 317 323 327 328 329 333 338 341 343 344 345 345 343 340 337 335 334 326 316 310 298 283 260 249 245 241 238 238 236 236 242 246 251 258 265 266 266 267
243 250 263 285 307 293 284 277 281 286 294 304 312 316 318 319 325 331 336 339 341 342 342 340 338 336 335 332 328 321 314 304 290 271 254 250 244 241 239 239 241 247 248 251 257 262 267 270 269
245 249 263 294 302 293 283 286 272 280 286 292 299 305 313 318 320 323 331 338 340 340 340 339 338 336 334 332 328 320 312 300 291 284 272 260 250 245 243 242 246 248 247 251 256 261 266 269 270
246 242 240 243 276 304 305 282 277 290 295 298 300 304 312 317 318 324 332 337 338 339 339 339 339 337 334 331 326 322 313 301 293 288 280 273 261 251 250 248 251 251 252 255 257 261 265 269 269
243 244 241 246 249 264 277 277 282 291 303 307 304 305 312 316 318 324 331 333 336 338 338 338 338 338 337 334 328 322 315 306 299 290 282 279 273 262 253 252 254 255 256 258 259 262 264 269 272
238 239 241 241 245 249 256 263 268 276 295 306 308 306 306 310 316 322 326 329 331 333 336 335 335 335 334 334 332 325 318 312 304 293 285 283 277 269 259 256 257 258 259 264 265 264 268 271 271
243 239 237 238 237 244 259 278 274 273 286 298 302 301 304 309 311 316 320 324 329 331 333 333 332 332 331 331 332 329 321 313 307 297 289 287 281 274 268 264 262 260 261 264 266 270 273 273 276
242 243 240 240 240 238 241 267 280 277 283 290 296 297 301 305 304 309 314 321 324 328 330 332 332 332 330 329 329 329 327 319 310 306 297 291 285 280 276 273 270 264 263 265 267 271 275 277 277